Showing default

IRIDIUM 114, 41923

Orbit data source: Space-Track

IRIDIUM 114, 41923 is a payload satellite owned by Iridium (US) in LEO that was launched on Sat, 14 Jan 2017 UTC via an FALCON 9 launch vehicle from the Air Force Western Test Range (AFWTR). Payload-class satellites include a variety of spacecraft equipped with specific instruments for various scientific and technological missions. These include communications satellites like Starlink; space stations such as the ISS; scientific satellites like the Hubble; Earth observation satellites from companies like Planet Labs, Umbra, and HawkEye 360; GPS; miniature CubeSats for education and research; and military/defense satellites.

Loading next visibility...
Identifier
41923, 2017-003G
Orbit
LEO
Country
Flag of USUS
Related business
Manufacturer
OATK SSG Gilbert
Mission
Operational Commercial Communications
Bus & Motor
ELITEBUS, Unknown motor
Mass
860 kg wet, 700 kg dry
Launch date (UTC)
2017-01-14 (9 years ago)
Launch vehicle
FALCON 9
Launch site
Air Force Western Test Range (AFWTR)
Object type
Payload
Rocket body
Debris
Shape & HBR
Trap Box + 2 Pan, 4.8 m
Radar Cross Section
10.154 m², Large (>1 m²)

Expand to show TLE details & history
Last TLE update: 15 hours ago

TLE from 15 hours ago
0 IRIDIUM 114
1 41923U 17003G   25353.98066586  .00000057  00000-0  13184-4 0  9999
2 41923  86.3990 163.3387 0001832  93.8528 266.2877 14.34217098467561
Epoch: 2025-12-19T23:32Z
TLE epoch observation values (Epoch: 2025-12-19T23:32:09.530Z)
Latitude
-0.00004°
Longitude
81.48496°
Altitude
780.805 km
Speed
7.463 km/s
True Right ascension
10h 53m 21s
True Declination
0° 00' 00"
Sunlit
Object was in daylight at epoch
Visualization orbit readout
Latitude
Unknown
Longitude
Unknown
Altitude
Unknown
Speed
Unknown
Apparent Right ascension
Unknown
Apparent Declination
Unknown
Sunlit
N/A
Visualization observer readout
Local Sidereal Time
13:36:30
Azimuth
Unknown
Elevation
Unknown
Doppler factor
Unknown
Orbital elements
Apogee altitude
775.944 km
Perigee altitude
773.323 km
Semi-major axis
7,152.771 km
Eccentricity
0.00018
Inclination
86.399°
RAAN
163.3387°
Arg. of periapsis
93.8528°
True anomaly
266.26675°
Mean anomaly
266.2877°
Eccentric anomaly
266.27723°
Mean motion
3.58783 °/min
Orbital period
100.34 mins
BSTAR
0.000013184
Loading maneuver chart data...
Computing Atmospheric mass density...
Loading historical data...
Loading historical data...
Loading historical data...
Loading historical data...
Loading historical data...
Loading historical data...
Loading historical data...

Documentation

Showing up to 5 results
|